Regional Weather Roundup
Issued by NWS Newport/Morehead, NC

Current Version | Previous Version | Graphics & Text | Print | Product List | Glossary Off
Versions: 1 2 3 4 5 6 7 8 9 10 11 12 13 14 15 16 17 18 19 20 21 22 23 24 25 26 27 28 29 30 31 32 33 34 35 36 37 38 39 40 41 42 43 44 45 46 47 48 49 50

477
ASUS42 KMHX 220525
RWRMHX
WEATHER ROUNDUP FOR EASTERN NORTH CAROLINA
NATIONAL WEATHER SERVICE NEWPORT/MOREHEAD CITY NC
100 AM EDT SUN APR 22 2018

NOTE: "FAIR" INDICATES FEW OR NO CLOUDS BELOW 12,000 FEET
WITH NO SIGNIFICANT WEATHER AND/OR OBSTRUCTIONS TO VISIBILITY

NCZ015>017-031-032-045>047-102-103-220600-
NORTH COAST

CITY           SKY/WX    TMP DP  RH WIND       PRES   REMARKS
EDENTON        FAIR      50  42  74 SE3       30.41F
ELIZABETH CITY FAIR      49  40  71 S3        30.41S
KITTY HAWK     FAIR      44  35  69 CALM      30.40S
MANTEO         FAIR      41  37  86 CALM      30.42S

$$

NCZ045>047-081-094-103-104-220600-
CENTRAL COAST

CITY           SKY/WX    TMP DP  RH WIND       PRES   REMARKS
FRISCO         FAIR      47  39  74 E5        30.41R

$$

NCZ095-097-098-100-101-220600-
SOUTHERN COAST

CITY           SKY/WX    TMP DP  RH WIND       PRES   REMARKS
BEAUFORT       FAIR      48  44  86 E3        30.39S
CEDAR ISLAND   NOT AVBL
JACKSONVILLE   FAIR      49  44  83 CALM      30.38R
PINEY ISLAND   NOT AVBL
WILMINGTON     FAIR      49  43  80 CALM      30.37R


$$

NCZ011>013-027>030-043-044-078>080-089-090>093-098-220600-
COASTAL PLAIN

CITY           SKY/WX    TMP DP  RH WIND       PRES   REMARKS
AHOSKIE        FAIR      46  41  85 SE3       30.40S
CLINTON        FAIR      50  43  76 CALM      30.38S
ELIZABETHTOWN  FAIR      48  40  73 MISG      30.37S
GOLDSBORO      FAIR      50  39  65 E3        30.37R
GREENVILLE     HAZE      52  43  71 CALM      30.40R VSB 1
HAVELOCK       CLEAR     49  43  80 E3        30.40S
KENANSVILLE    FAIR      43  39  87 CALM      30.38S
KINSTON        FAIR      50  40  68 SE3       30.39F
NEW BERN       FAIR      51  44  77 E5        30.40R
RICHLANDS      FAIR      43  40  89 CALM      30.39R
ROCKY MOUNT    FAIR      51  41  68 CALM      30.38R
WASHINGTON     FAIR      47  42  83 CALM      30.40S
WHITEVILLE     FAIR      47  41  79 CALM      30.36S

$$

AMZ130-135-150-152-154-156-158-170-250-252-270-ANZ085-086-088-633-658-670-220600-
MARINE OBSERVATIONS

STATION/POSITION TIME  TEMP    WIND        PRES    WAVE   SWELL
                       AIR SEA DIR/SP/G            HT/PER HT/PER
                 (UTC) (F)     (DEG/KT/KT) (MB)    (FT/S) (FT/S)
CHESAPEAKE LIGHT NOT AVBL
64 E VA BEACH    0450   49 49  140/  6/  8 1030.1    2/ 6   2/ 6
DUCK             0500   50 53  150/  6/  8 1029.4
2 E DUCK         0500      52                N/A     2/ 6
OREGON INLET     0500   48 59   90/  3/  5 1029.7
13E OREGON INLT  0448      51                N/A     2/ 7   2/ 7
HATTERAS CG      0500   51 61   70/  4/  5 1029.4
DIAMOND BUOY     0510   59 73   40/ 10/ 14 1029.3
CAPE LOOKOUT     0500           80/ 11/ 12 1029.0
BEAUFORT LAB     0500   58 63   90/  5/  6 1028.9
30 SE NEW RVR IN 0508   63 65   90/ 10/ 14 1028.3
30 SE NEW RVR IN 0500      65                N/A     3/ 8
27 SE WRIGHTSVLE 0508   64 66  110/ 10/ 16 1027.9
5 SE WRIGHTSVLE  0508   61 60  110/  6/ 10 1027.8
225 S CAPE HAT   0510   65 72   90/ 10/ 14 1026.8
41 SE CHARLESTON 0510   67 67   70/ 16/ 19 1026.0

$$




USA.gov is the U.S. government's official web portal to all federal, state and local government web resources and services.